Flag for U.S.A. Weather past 2 weeks in Sioux Falls, South Dakota, U.S.A.

Now
63 °F

Passing clouds.


Feels Like: 63 °F
Forecast: 58 / 72 °F
Wind: 3 mph from Northeast

Location: Foss Field

Current Time: Sep 17, 2014 at 9:18:39 PM

Latest Report: Sep 17, 2014 at 8:56 PM


Visibility: 10 mi

Pressure: 29.96 "Hg

Humidity: 78%

Dew point: 56 °F

Location of Sioux FallsLocation

Historic Weather in Sioux Falls — Graph

°F

Sioux Falls temperature yesterday

Maximum temperature yesterday: 68 °F (at 5:56 PM)
Minimum temperature yesterday: 39 °F (at 5:56 AM)
Average temperature yesterday: 56 °F

Past Weeks' High & Low Weather Summary

 TemperatureHumidityPressure
High80 °F (Sep 3, 4:56 PM)100% (Sep 14, 7:56 AM)30.50 "Hg (Sep 14, 7:56 AM)
Low38 °F (Sep 12, 11:56 PM)39% (Sep 6, 6:56 PM)29.57 "Hg (Sep 4, 5:56 AM)
Average59 °F76%30.05 "Hg
* Reported Sep 2 7:56 PM — Sep 17 7:56 PM, Sioux Falls, Weather by CustomWeather, © 2014

Note: Actual official high and low records may vary slightly from our data, if they occured in-between our weather recording intervals... More about our weather records

Advertising

Sioux Falls weather history for previous 24 hours

 ConditionsComfort  
Time TempWeatherWind HumidityBarometerVisibility
7:56 PM
Sep 17
65 °FScattered clouds.5 mph73%29.94 "Hg10 mi
6:56 PM73 °FPartly sunny.6 mph53%29.92 "Hg10 mi
5:56 PM78 °FPartly sunny.6 mph40%29.91 "Hg10 mi
4:56 PM79 °FBroken clouds.No wind42%29.90 "Hg10 mi
3:56 PM79 °FBroken clouds.7 mph45%29.90 "Hg10 mi
2:56 PM77 °FPartly sunny.7 mph48%29.90 "Hg10 mi
1:56 PM74 °FPartly sunny.5 mph57%29.91 "Hg10 mi
12:56 PM73 °FScattered clouds.5 mph59%29.91 "Hg10 mi
11:56 AM69 °FScattered clouds.6 mph63%29.93 "Hg10 mi
10:56 AM66 °FPassing clouds.5 mph68%29.93 "Hg10 mi
9:56 AM62 °FPassing clouds.No wind73%29.93 "Hg10 mi
8:56 AM58 °FPassing clouds.3 mph78%29.92 "Hg10 mi
7:56 AM51 °FPassing clouds.No wind92%29.93 "Hg10 mi
6:56 AM49 °FPassing clouds.No wind97%29.92 "Hg9 mi
5:56 AM51 °FPassing clouds.3 mph89%29.91 "Hg10 mi
4:56 AM55 °FPassing clouds.3 mph80%29.91 "Hg10 mi
3:56 AM55 °FPassing clouds.5 mph80%29.93 "Hg10 mi
2:56 AM58 °FMostly cloudy.5 mph75%29.94 "Hg10 mi
1:56 AM58 °FPassing clouds.7 mph75%29.94 "Hg10 mi
12:56 AM60 °FOvercast.6 mph67%29.95 "Hg10 mi
11:56 PM
Sep 16
61 °FOvercast.7 mph65%29.95 "Hg10 mi
10:56 PM62 °FOvercast.9 mph62%29.97 "Hg10 mi
9:56 PM62 °FOvercast.10 mph62%29.97 "Hg10 mi
Weather by CustomWeather, © 2014

See weather overviewHow to use our weather pages